Tracking 21094 objects as of 12-Aug-2020
HD Live streaming from Space Station
objects crossing your sky now
Track the most recent launched group of Starlink satellites

BEIDOU 3M11

Track BEIDOU 3M11 now!
BEIDOU 3M11 is classified as:


NORAD ID: 43602
Int'l Code: 2018-067A
Perigee: 21,518.1 km
Apogee: 21,552.2 km
Inclination: 54.6 °
Period: 773.2 minutes
Semi major axis: 27906 km
RCS: Unknown
Launch date: August 24, 2018
Source: People's Republic of China (PRC)
Launch site: Xichang Space Center, China (XSC)
aabbcc
Your satellite tracking list
Your tracking list is empty




NASA's NSSDC Master Catalog

Two Line Element Set (TLE):
1 43602U 18067A   20225.10384775  .00000065  00000-0  00000+0 0  9993
2 43602  54.6119 253.7700 0006115 340.8611  95.4205  1.86231674 13369
Source of the keplerian elements: AFSPC